Location: Schommer Observatory
(40.5200°N, 74.4500°W)
Time: 03:45:33
(UTC-04:00)

Tiangong 2 - Pass Details

Date: 18 May 2018
Orbit: 382 x 385 km, 42.8° (Epoch: 27 May)

Event Time Altitude Azimuth Distance (km) Brightness Sun altitude
Exits shadow 03:10:44 30° 92° (E) 722 2.7 -22.1°
Drops below altitude 10° 03:12:28 10° 98° (E) 1,397 4.2 -21.9°
Sets 03:14:32 0° 100° (E) 2,249 5.3 -21.6°
